TimeCST,TemperatureF,Dew PointF,Humidity,Sea Level PressureIn,VisibilityMPH,Wind Direction,Wind SpeedMPH,Gust SpeedMPH,PrecipitationIn,Events,Conditions,WindDirDegrees,DateUTC
12:53 AM,44.1,32.0,63,29.77,10.0,WSW,11.5,-,N/A,,Clear,240,2013-01-28 06:53:00
1:53 AM,41.0,32.0,70,29.76,10.0,SW,10.4,-,N/A,,Clear,230,2013-01-28 07:53:00
2:53 AM,39.9,32.0,73,29.76,10.0,SW,11.5,-,N/A,,Clear,220,2013-01-28 08:53:00
3:53 AM,39.0,30.9,73,29.76,10.0,SSW,10.4,-,N/A,,Clear,210,2013-01-28 09:53:00
4:53 AM,37.9,30.9,76,29.76,10.0,SW,9.2,-,N/A,,Clear,220,2013-01-28 10:53:00
5:53 AM,39.0,32.0,76,29.75,10.0,SW,12.7,-,N/A,,Clear,220,2013-01-28 11:53:00
6:53 AM,41.0,32.0,70,29.76,10.0,SSW,18.4,-,N/A,,Clear,210,2013-01-28 12:53:00
7:53 AM,39.9,33.1,77,29.77,10.0,SSW,18.4,-,N/A,,Clear,210,2013-01-28 13:53:00
8:53 AM,43.0,34.0,71,29.78,10.0,SSW,18.4,-,N/A,,Clear,210,2013-01-28 14:53:00
9:53 AM,53.1,36.0,52,29.75,10.0,SW,17.3,-,N/A,,Clear,220,2013-01-28 15:53:00
10:53 AM,60.1,35.1,39,29.73,10.0,SW,25.3,38.0,N/A,,Clear,220,2013-01-28 16:53:00
11:53 AM,62.1,34.0,35,29.72,7.0,SW,29.9,40.3,N/A,,Clear,220,2013-01-28 17:53:00
12:53 PM,64.0,33.1,31,29.69,10.0,SW,28.8,40.3,N/A,,Clear,230,2013-01-28 18:53:00
1:53 PM,66.9,28.9,24,29.64,9.0,WSW,36.8,44.9,N/A,,Clear,240,2013-01-28 19:53:00
2:43 PM,66.2,30.2,26,29.71,2.5,SSW,34.5,40.3,N/A,,Haze,210,2013-01-28 20:43:00
2:53 PM,66.9,30.0,25,29.62,3.0,SW,35.7,43.7,N/A,,Haze,220,2013-01-28 20:53:00
3:53 PM,64.9,30.0,27,29.63,7.0,SW,31.1,36.8,N/A,,Partly Cloudy,220,2013-01-28 21:53:00
4:53 PM,64.9,27.0,24,29.62,7.0,SW,27.6,39.1,N/A,,Clear,220,2013-01-28 22:53:00
5:53 PM,62.1,28.0,28,29.62,9.0,SSW,24.2,32.2,N/A,,Clear,210,2013-01-28 23:53:00
6:53 PM,55.9,27.0,33,29.64,10.0,SSW,16.1,-,N/A,,Clear,200,2013-01-29 00:53:00
7:53 PM,55.9,26.1,32,29.66,10.0,SW,16.1,-,N/A,,Clear,220,2013-01-29 01:53:00
8:53 PM,54.0,25.0,33,29.66,10.0,SW,19.6,-,N/A,,Clear,220,2013-01-29 02:53:00
9:53 PM,48.9,25.0,39,29.65,10.0,SW,12.7,-,N/A,,Clear,220,2013-01-29 03:53:00
10:53 PM,51.1,27.0,39,29.62,10.0,SW,16.1,-,N/A,,Clear,230,2013-01-29 04:53:00
11:53 PM,48.9,28.0,44,29.63,10.0,SW,15.0,-,N/A,,Clear,220,2013-01-29 05:53:00